Flag Weather past 2 weeks in Mannheim, Baden-Württemberg, Germany

Now
43 °F

Clear.


Feels Like: 43 °F
Forecast: 34 / 44 °F
Wind: 2 mph from North

Location: Baden Wurttemberg - Neuostheim

Current Time: Nov 21, 2014 at 12:38:53 AM

Latest Report: Nov 20, 2014 at 8:50 PM


Visibility: 10 mi

Pressure: 30.27 "Hg

Humidity: 87%

Dew point: 39 °F

Location of MannheimLocation

Historic Weather in Mannheim — Graph

°F

Mannheim temperature yesterday

Maximum temperature yesterday: 48 °F (at 2:20 PM)
Minimum temperature yesterday: 37 °F (at 5:20 AM)
Average temperature yesterday: 43 °F

Past Weeks' High & Low Weather Summary

 TemperatureHumidityPressure
High57 °F (Nov 8, 1:50 PM)100% (Nov 6, 5:20 AM)30.33 "Hg (Nov 6, 5:20 AM)
Low36 °F (Nov 6, 11:20 PM)59% (Nov 8, 3:50 PM)29.59 "Hg (Nov 15, 4:50 PM)
Average48 °F88%29.85 "Hg
* Reported Nov 5 8:20 PM — Nov 20 8:50 PM, Mannheim, Weather by CustomWeather, © 2014

Note: Actual official high and low records may vary slightly from our data, if they occured in-between our weather recording intervals... More about our weather records

Advertising

Mannheim weather history for previous 24 hours

 ConditionsComfort  
Time TempWeatherWind HumidityBarometerVisibility
8:50 PM
Nov 20
43 °FClear.2 mph87%30.27 "Hg10 mi
8:20 PM43 °FPassing clouds.2 mph87%30.27 "HgN/A
7:50 PM45 °FPassing clouds.3 mph87%30.27 "HgN/A
7:20 PM45 °FPassing clouds.3 mph93%30.27 "HgN/A
6:50 PM43 °FPassing clouds.2 mph93%30.27 "HgN/A
6:20 PM45 °FPassing clouds.2 mph93%30.27 "Hg5 mi
5:50 PM46 °FPassing clouds.3 mph87%30.27 "Hg5 mi
5:20 PM46 °FPassing clouds.2 mph87%30.27 "Hg5 mi
4:50 PM48 °FOvercast.3 mph82%30.27 "HgN/A
4:20 PM46 °FOvercast.3 mph87%30.27 "HgN/A
3:50 PM46 °FOvercast.6 mph87%30.27 "HgN/A
3:20 PM46 °FOvercast.7 mph87%30.27 "HgN/A
2:50 PM46 °FMore clouds than sun.6 mph87%30.27 "HgN/A
2:20 PM48 °FPartly sunny.5 mph82%30.30 "HgN/A
1:50 PM46 °FPartly sunny.5 mph87%30.30 "Hg6 mi
1:20 PM46 °FPartly sunny.5 mph87%30.30 "Hg6 mi
12:50 PM46 °FBroken clouds.3 mph87%30.30 "Hg6 mi
12:20 PM46 °FBroken clouds.3 mph82%30.30 "Hg6 mi
11:50 AM46 °FPassing clouds.3 mph93%30.30 "Hg6 mi
11:20 AM46 °FPassing clouds.1 mph100%30.33 "HgN/A
10:50 AM43 °FScattered clouds.1 mph100%30.33 "Hg4 mi
10:20 AM43 °FFog.1 mph100%30.33 "Hg3 mi
9:50 AM41 °FFog.1 mph100%30.33 "Hg3 mi
9:20 AM39 °FFog.2 mph100%30.33 "Hg1 mi
8:50 AM39 °FFog.2 mph100%30.30 "Hg1 mi
8:20 AM39 °FFog.2 mph100%30.30 "Hg1 mi
7:50 AM39 °FFog.2 mph93%30.30 "Hg1 mi
7:20 AM37 °FFog.1 mph100%30.30 "Hg0 mi
6:50 AM37 °FFog.No wind100%30.30 "Hg0 mi
5:50 AM37 °FFog.1 mph100%30.30 "Hg0 mi
5:20 AM37 °FFog.2 mph100%30.30 "Hg0 mi
Weather by CustomWeather, © 2014

See weather overviewHow to use our weather pages